This is the latest recevied weather packets stored in our database for station/object JA6YCL-13. If no packets are shown the sender has not sent any weather packets the latest 10 day(s).
| Time | Temp. | Humidity | Pressure | Rain* | Wind** | Luminosity | Snow |
|---|---|---|---|---|---|---|---|
| 1778160512 | 18.89° C | 88% | 1012.5 hPa | 0 mm | - | - | - |
| 1778159687 | 18.89° C | 88% | 1012.4 hPa | 0 mm | - | - | - |
| 1778158903 | 18.89° C | 87% | 1012.4 hPa | 0 mm | - | - | - |
| 1778158148 | 18.89° C | 86% | 1012.2 hPa | 0 mm | - | - | - |
| 1778157253 | 19.44° C | 85% | 1012.2 hPa | 0 mm | - | - | - |
| 1778156357 | 19.44° C | 84% | 1012.2 hPa | 0 mm | - | - | - |
| 1778155623 | 19.44° C | 84% | 1012 hPa | 0 mm | - | - | - |
| 1778154743 | 20° C | 82% | 1011.9 hPa | 0 mm | - | - | - |
| 1778153908 | 20° C | 82% | 1011.9 hPa | 0 mm | - | - | - |
| 1778153073 | 20.56° C | 80% | 1011.7 hPa | 0 mm | - | - | - |
| 1778152213 | 20.56° C | 80% | 1011.6 hPa | 0 mm | - | - | - |
| 1778151433 | 20.56° C | 80% | 1011.7 hPa | 0 mm | - | - | - |
| 1778150678 | 20.56° C | 79% | 1011.4 hPa | 0 mm | - | - | - |
| 1778149947 | 20.56° C | 79% | 1011.5 hPa | 0 mm | - | - | - |
| 1778149204 | 21.11° C | 78% | 1011.1 hPa | 0 mm | - | - | - |
| 1778148432 | 21.11° C | 78% | 1011.2 hPa | 0 mm | - | - | - |
| 1778147627 | 21.11° C | 76% | 1011 hPa | 0 mm | - | - | - |
| 1778146858 | 21.67° C | 75% | 1011 hPa | 0 mm | - | - | - |
| 1778146013 | 22.22° C | 73% | 1010.8 hPa | 0 mm | - | - | - |
| 1778145192 | 22.78° C | 72% | 1010.9 hPa | 0 mm | - | - | - |
| 1778144326 | 22.78° C | 71% | 1010.8 hPa | 0 mm | - | - | - |
| 1778143438 | 22.78° C | 71% | 1011 hPa | 0 mm | - | - | - |
| 1778142557 | 22.22° C | 73% | 1011 hPa | 0 mm | - | - | - |
| 1778141808 | 22.78° C | 71% | 1010.9 hPa | 0 mm | - | - | - |
| 1778141073 | 22.78° C | 71% | 1010.9 hPa | 0 mm | - | - | - |
* Rain latest hour (hover to see other rain measurements)
** Current wind speed in m/s (hover to see current wind gust speed)